THOR ABLESTAR DEB, 177

Orbit data source: Space-Track

THOR ABLESTAR DEB, 177 is space debris in LEO originally from a launch on Thu, 29 Jun 1961 UTC launched from the Air Force Eastern Test Range (AFETR). Debris objects in space refer to the collection of defunct objects orbiting the Earth. Examples of debris include non-operational satellites, rocket bodies, and fragments generated from explosions, collisions, or faulty payload assembly.

Loading next visibility...
Identifier
177, 1961-015BB
Orbit
LEO
Country
Flag of USUS
Related business
Manufacturer
Unknown
Mission
Spacecraft
Bus & Motor
Unknown
Mass
Unknown
Launch date (UTC)
1961-06-29 (64 years ago)
Launch vehicle
Unknown
Launch site
Air Force Eastern Test Range (AFETR)
Object type
Payload
Rocket body
Debris
Shape & HBR
Unknown shape, 0.2 m
Radar Cross Section
Medium (>0.1 m² and <1 m²)

Expand to show TLE details & history
Last TLE update: 13 hours ago

TLE from 13 hours ago
0 THOR ABLESTAR DEB
1 00177U 61015BB  25349.96403437 -.00000184  00000-0 -49398-4 0  9999
2 00177  66.6556 311.3907 0112715 221.4800 137.7696 14.14767059315247
Epoch: 2025-12-15T23:08Z
TLE epoch observation values (Epoch: 2025-12-15T23:08:12.569Z)
Latitude
0.00001°
Longitude
-120.51672°
Altitude
905.877 km
Speed
7.368 km/s
True Right ascension
20h 45m 33s
True Declination
0° 00' 00"
Sunlit
Object was in daylight at epoch
Visualization orbit readout
Latitude
Unknown
Longitude
Unknown
Altitude
Unknown
Speed
Unknown
Apparent Right ascension
Unknown
Apparent Declination
Unknown
Sunlit
N/A
Visualization observer readout
Local Sidereal Time
10:19:46
Azimuth
Unknown
Elevation
Unknown
Doppler factor
Unknown
Orbital elements
Apogee altitude
922.872 km
Perigee altitude
760.12 km
Semi-major axis
7,219.633 km
Eccentricity
0.01127
Inclination
66.6556°
RAAN
311.3907°
Arg. of periapsis
221.48°
True anomaly
138.62872°
Mean anomaly
137.7696°
Eccentric anomaly
138.20005°
Mean motion
3.5381 °/min
Orbital period
101.75 mins
BSTAR
-0.000049398
Loading maneuver chart data...
Computing Atmospheric mass density...

Documentation

Showing up to 5 results
|